Location: Tel Aviv
(32.0670°N, 34.7670°E)
Time: 03:13:10
(UTC+03:00)

Tiros 1 - Pass Details

Date: 20 January 2022
Orbit: 629 x 663 km, 48.4° (Epoch: 26 May)

Event Time Altitude Azimuth Distance (km) Brightness Sun altitude
Rises 22:58:24 0° 225° (SW) 2,980 - -73.0°
Reaches altitude 10° 23:00:44 10° 224° (SW) 2,071 - -73.3°
Maximum altitude 23:05:31 78° 138° (SE) 678 - -74.0°
Drops below altitude 10° 23:10:18 10° 53° (NE) 2,071 - -74.7°
Sets 23:12:39 0° 52° (NE) 2,982 - -75.0°
